Torna al catalogo

SL-16 DEB

AttivoLEO
NORAD 22289·DEBRIS·🇷🇺 Russia

Lanciato Dec 25, 1992 da Baikonur Cosmodrome

Loading…

Prossimi Passaggi (prossime 24 ore)

TLE

AggiornatoSource: Space-Track

Epoca: Sep 14, 2026, 15:07 UTC

1 22289U 92093D   26257.62994287  .00000105  00000-0  55977-4 0  9998
2 22289  70.8306 125.3071 0061215 215.4292 174.9931 14.33084587760682

Traccia SL-16 DEB in tempo reale con AllMySat

Download on the App Store